Track COSMOS 2516 (GLONASS) now! COSMOS 2516 (GLONASS) is classified as:
1 41554U 16032A 26164.14992949 .00000116 00000-0 00000-0 0 9995 2 41554 63.8437 191.1985 0018091 214.8302 145.1257 2.13106582 78148